| time (UTC) | temp F | wind direction | speed knots | gust knots | rain 1hr in | rain 24hr in | rain mn in | humidity % | barometer mb |
| 20260510142537 | 75 | 66 | 3.5 | 8.7 | 0.00 | 0.00 | 0.00 | 52 | 1012.8 |
| 20260510142035 | 74 | 65 | 3.5 | 8.7 | 0.00 | 0.00 | 0.00 | 54 | 1012.8 |
| 20260510141555 | 73 | 55 | 4.3 | 7.8 | 0.00 | 0.00 | 0.00 | 54 | 1012.8 |
| 20260510141035 | 73 | 77 | 4.3 | 7.8 | 0.00 | 0.00 | 0.00 | 57 | 1012.8 |
| 20260510140535 | 72 | 65 | 3.5 | 6.1 | 0.00 | 0.00 | 0.00 | 58 | 1012.7 |
| 20260510140052 | 72 | 60 | 3.5 | 6.1 | 0.00 | 0.00 | 0.00 | 58 | 1012.8 |
| 20260510135536 | 72 | 71 | 3.5 | 6.1 | 0.00 | 0.00 | 0.00 | 61 | 1012.7 |
| 20260510135036 | 71 | 69 | 3.5 | 4.3 | 0.00 | 0.00 | 0.00 | 61 | 1012.7 |
| 20260510134555 | 71 | 78 | 2.6 | 4.3 | 0.00 | 0.00 | 0.00 | 65 | 1012.7 |
| 20260510134034 | 70 | 67 | 2.6 | 3.5 | 0.00 | 0.00 | 0.00 | 66 | 1012.8 |
| 20260510133534 | 70 | 65 | 1.7 | 2.6 | 0.00 | 0.00 | 0.00 | 66 | 1012.7 |
| 20260510133101 | 69 | 76 | 0.9 | 3.5 | 0.00 | 0.00 | 0.00 | 69 | 1012.7 |
| 20260510132534 | 69 | 67 | 1.7 | 3.5 | 0.00 | 0.00 | 0.00 | 70 | 1012.8 |
| 20260510132035 | 68 | 67 | 1.7 | 3.5 | 0.00 | 0.00 | 0.00 | 70 | 1012.7 |
| 20260510131600 | 68 | 67 | 1.7 | 3.5 | 0.00 | 0.00 | 0.00 | 70 | 1012.7 |
| 20260510131034 | 67 | 66 | 1.7 | 2.6 | 0.00 | 0.00 | 0.00 | 72 | 1012.6 |
| 20260510130537 | 67 | 69 | 0.9 | 2.6 | 0.00 | 0.00 | 0.00 | 75 | 1012.6 |
| 20260510130046 | 66 | 65 | 0.9 | 2.6 | 0.00 | 0.00 | 0.00 | 74 | 1012.8 |
| 20260510125536 | 65 | 0 | 0.0 | 0.0 | 0.00 | 0.00 | 0.00 | 77 | 1012.8 |
| 20260510125035 | 64 | 0 | 0.0 | 0.0 | 0.00 | 0.00 | 0.00 | 77 | 1012.9 |
| 20260510124545 | 64 | 0 | 0.0 | 0.0 | 0.00 | 0.00 | 0.00 | 77 | 1012.9 |
| 20260510124036 | 65 | 0 | 0.0 | 0.0 | 0.00 | 0.00 | 0.00 | 75 | 1012.9 |
| 20260510123535 | 65 | 0 | 0.0 | 0.0 | 0.00 | 0.00 | 0.00 | 76 | 1012.9 |
| 20260510123100 | 65 | 0 | 0.0 | 0.0 | 0.00 | 0.00 | 0.00 | 77 | 1012.7 |
| 20260510122535 | 65 | 0 | 0.0 | 0.0 | 0.00 | 0.00 | 0.00 | 78 | 1012.7 |
| 20260510122036 | 64 | 0 | 0.0 | 0.0 | 0.00 | 0.00 | 0.00 | 80 | 1012.6 |
| 20260510121549 | 63 | 0 | 0.0 | 0.0 | 0.00 | 0.00 | 0.00 | 81 | 1012.5 |
| 20260510121035 | 62 | 0 | 0.0 | 0.0 | 0.00 | 0.00 | 0.00 | 84 | 1012.5 |
| 20260510120534 | 61 | 0 | 0.0 | 0.0 | 0.00 | 0.00 | 0.00 | 84 | 1012.5 |
| 20260510120055 | 60 | 0 | 0.0 | 0.0 | 0.00 | 0.00 | 0.00 | 86 | 1012.5 |
| 20260510115536 | 59 | 0 | 0.0 | 0.0 | 0.00 | 0.00 | 0.00 | 87 | 1012.4 |
| 20260510115034 | 59 | 0 | 0.0 | 0.0 | 0.00 | 0.00 | 0.00 | 89 | 1012.3 |
| 20260510114554 | 58 | 0 | 0.0 | 0.0 | 0.00 | 0.00 | 0.00 | 90 | 1012.3 |
| 20260510114037 | 57 | 0 | 0.0 | 0.0 | 0.00 | 0.00 | 0.00 | 92 | 1012.2 |
| 20260510113534 | 57 | 0 | 0.0 | 0.0 | 0.00 | 0.00 | 0.00 | 93 | 1012.3 |
| 20260510113046 | 56 | 0 | 0.0 | 0.0 | 0.00 | 0.00 | 0.00 | 95 | 1012.2 |
| 20260510112535 | 55 | 0 | 0.0 | 0.0 | 0.00 | 0.00 | 0.00 | 95 | 1012.2 |
| 20260510112035 | 55 | 0 | 0.0 | 0.0 | 0.00 | 0.00 | 0.00 | 97 | 1012.1 |
| 20260510111547 | 54 | 0 | 0.0 | 0.0 | 0.00 | 0.00 | 0.00 | 97 | 1012.1 |
| 20260510111034 | 53 | 0 | 0.0 | 0.0 | 0.00 | 0.00 | 0.00 | 97 | 1012.0 |
| 20260510110535 | 52 | 0 | 0.0 | 0.0 | 0.00 | 0.00 | 0.00 | 96 | 1012.0 |
| 20260510110047 | 52 | 0 | 0.0 | 0.0 | 0.00 | 0.00 | 0.00 | 96 | 1011.9 |
| 20260510105535 | 52 | 0 | 0.0 | 0.0 | 0.00 | 0.00 | 0.00 | 96 | 1011.8 |
| 20260510105035 | 51 | 0 | 0.0 | 0.0 | 0.00 | 0.00 | 0.00 | 96 | 1011.8 |
| 20260510104547 | 51 | 0 | 0.0 | 0.0 | 0.00 | 0.00 | 0.00 | 95 | 1011.7 |
| 20260510104034 | 51 | 0 | 0.0 | 0.0 | 0.00 | 0.00 | 0.00 | 95 | 1011.7 |
| 20260510103534 | 51 | 0 | 0.0 | 0.0 | 0.00 | 0.00 | 0.00 | 95 | 1011.6 |
| 20260510103046 | 51 | 0 | 0.0 | 0.0 | 0.00 | 0.00 | 0.00 | 95 | 1011.5 |
| 20260510102534 | 51 | 0 | 0.0 | 0.0 | 0.00 | 0.00 | 0.00 | 95 | 1011.5 |
| 20260510102034 | 51 | 0 | 0.0 | 0.0 | 0.00 | 0.00 | 0.00 | 95 | 1011.5 |
| 20260510101548 | 51 | 0 | 0.0 | 0.0 | 0.00 | 0.00 | 0.00 | 95 | 1011.4 |
| 20260510101034 | 51 | 0 | 0.0 | 0.0 | 0.00 | 0.00 | 0.00 | 95 | 1011.3 |
| 20260510100534 | 51 | 0 | 0.0 | 0.0 | 0.00 | 0.00 | 0.00 | 94 | 1011.2 |
| 20260510100043 | 51 | 0 | 0.0 | 0.0 | 0.00 | 0.00 | 0.00 | 94 | 1011.2 |
| 20260510095535 | 51 | 0 | 0.0 | 0.0 | 0.00 | 0.00 | 0.00 | 94 | 1011.1 |
| 20260510095034 | 51 | 0 | 0.0 | 0.0 | 0.00 | 0.00 | 0.00 | 94 | 1011.1 |
| 20260510094548 | 51 | 0 | 0.0 | 0.0 | 0.00 | 0.00 | 0.00 | 94 | 1011.1 |
| 20260510094035 | 51 | 0 | 0.0 | 0.0 | 0.00 | 0.00 | 0.00 | 94 | 1011.0 |
| 20260510093535 | 51 | 0 | 0.0 | 0.0 | 0.00 | 0.00 | 0.00 | 94 | 1011.0 |
| 20260510093048 | 51 | 0 | 0.0 | 0.0 | 0.00 | 0.00 | 0.00 | 93 | 1011.0 |
| 20260510092538 | 51 | 0 | 0.0 | 0.0 | 0.00 | 0.00 | 0.00 | 94 | 1010.8 |
| 20260510092035 | 51 | 0 | 0.0 | 0.0 | 0.00 | 0.00 | 0.00 | 94 | 1010.9 |
| 20260510091550 | 51 | 0 | 0.0 | 0.0 | 0.00 | 0.00 | 0.00 | 94 | 1010.8 |
| 20260510091034 | 52 | 0 | 0.0 | 0.0 | 0.00 | 0.00 | 0.00 | 94 | 1010.8 |
| 20260510090535 | 52 | 0 | 0.0 | 0.0 | 0.00 | 0.00 | 0.00 | 93 | 1010.8 |
| 20260510090100 | 52 | 0 | 0.0 | 0.0 | 0.00 | 0.00 | 0.00 | 94 | 1010.8 |
| 20260510085538 | 52 | 0 | 0.0 | 0.0 | 0.00 | 0.00 | 0.00 | 94 | 1010.8 |
| 20260510085034 | 52 | 0 | 0.0 | 0.0 | 0.00 | 0.00 | 0.00 | 93 | 1010.8 |
| 20260510084545 | 52 | 0 | 0.0 | 0.0 | 0.00 | 0.00 | 0.00 | 93 | 1010.8 |
| 20260510084034 | 52 | 0 | 0.0 | 0.0 | 0.00 | 0.00 | 0.00 | 93 | 1010.7 |
| 20260510083535 | 53 | 0 | 0.0 | 0.0 | 0.00 | 0.00 | 0.00 | 94 | 1010.8 |
| 20260510083042 | 53 | 0 | 0.0 | 0.0 | 0.00 | 0.00 | 0.00 | 94 | 1010.8 |
| 20260510082536 | 53 | 0 | 0.0 | 0.0 | 0.00 | 0.00 | 0.00 | 94 | 1010.6 |
| 20260510082035 | 53 | 0 | 0.0 | 0.0 | 0.00 | 0.00 | 0.00 | 94 | 1010.7 |
| 20260510081552 | 53 | 0 | 0.0 | 0.0 | 0.00 | 0.00 | 0.00 | 94 | 1010.7 |
| 20260510081038 | 53 | 0 | 0.0 | 0.0 | 0.00 | 0.00 | 0.00 | 93 | 1010.6 |
| 20260510080538 | 53 | 0 | 0.0 | 0.0 | 0.00 | 0.00 | 0.00 | 93 | 1010.5 |
| 20260510080049 | 53 | 0 | 0.0 | 0.0 | 0.00 | 0.00 | 0.00 | 93 | 1010.5 |
| 20260510075537 | 53 | 0 | 0.0 | 0.0 | 0.00 | 0.00 | 0.00 | 93 | 1010.4 |
| 20260510075040 | 53 | 0 | 0.0 | 0.0 | 0.00 | 0.00 | 0.00 | 93 | 1010.4 |
| 20260510074547 | 53 | 0 | 0.0 | 0.0 | 0.00 | 0.00 | 0.00 | 93 | 1010.4 |
| 20260510074038 | 53 | 0 | 0.0 | 0.0 | 0.00 | 0.00 | 0.00 | 93 | 1010.3 |
| 20260510073538 | 53 | 0 | 0.0 | 0.0 | 0.00 | 0.00 | 0.00 | 93 | 1010.2 |
| 20260510073103 | 53 | 0 | 0.0 | 0.0 | 0.00 | 0.00 | 0.00 | 93 | 1010.1 |
| 20260510072538 | 54 | 0 | 0.0 | 0.0 | 0.00 | 0.00 | 0.00 | 93 | 1010.2 |
| 20260510072039 | 54 | 0 | 0.0 | 0.0 | 0.00 | 0.00 | 0.00 | 93 | 1010.1 |
| 20260510071556 | 54 | 0 | 0.0 | 0.0 | 0.00 | 0.00 | 0.00 | 93 | 1010.0 |
| 20260510071040 | 54 | 0 | 0.0 | 0.0 | 0.00 | 0.00 | 0.00 | 93 | 1010.2 |
| 20260510070542 | 54 | 0 | 0.0 | 0.0 | 0.00 | 0.00 | 0.00 | 92 | 1010.3 |
| 20260510070053 | 54 | 0 | 0.0 | 0.0 | 0.00 | 0.00 | 0.00 | 92 | 1010.2 |
| 20260510065538 | 54 | 0 | 0.0 | 0.0 | 0.00 | 0.00 | 0.00 | 92 | 1010.1 |
| 20260510065037 | 54 | 0 | 0.0 | 0.0 | 0.00 | 0.00 | 0.00 | 92 | 1010.0 |
| 20260510064555 | 54 | 0 | 0.0 | 0.0 | 0.00 | 0.00 | 0.00 | 92 | 1010.0 |
| 20260510064037 | 54 | 0 | 0.0 | 0.0 | 0.00 | 0.00 | 0.00 | 92 | 1010.1 |
| 20260510063538 | 55 | 0 | 0.0 | 0.0 | 0.00 | 0.00 | 0.00 | 92 | 1010.0 |
| 20260510063048 | 55 | 0 | 0.0 | 0.0 | 0.00 | 0.00 | 0.00 | 92 | 1010.1 |
| 20260510062538 | 55 | 0 | 0.0 | 0.0 | 0.00 | 0.00 | 0.00 | 92 | 1010.1 |
| 20260510062039 | 55 | 0 | 0.0 | 0.0 | 0.00 | 0.00 | 0.00 | 91 | 1010.1 |
| 20260510061549 | 55 | 0 | 0.0 | 0.0 | 0.00 | 0.00 | 0.00 | 91 | 1010.0 |
| 20260510061041 | 55 | 0 | 0.0 | 0.0 | 0.00 | 0.00 | 0.00 | 92 | 1010.0 |
| 20260510060538 | 55 | 0 | 0.0 | 0.0 | 0.00 | 0.00 | 0.00 | 92 | 1010.0 |
| 20260510060050 | 55 | 0 | 0.0 | 0.0 | 0.00 | 0.00 | 0.00 | 92 | 1009.9 |
| 20260510055538 | 55 | 0 | 0.0 | 0.0 | 0.00 | 0.00 | 0.00 | 91 | 1009.9 |
| 20260510055041 | 56 | 0 | 0.0 | 0.0 | 0.00 | 0.00 | 0.00 | 91 | 1009.9 |
| 20260510054544 | 56 | 0 | 0.0 | 0.0 | 0.00 | 0.00 | 0.00 | 91 | 1010.0 |
| 20260510054039 | 56 | 0 | 0.0 | 0.0 | 0.00 | 0.00 | 0.00 | 91 | 1009.9 |
| 20260510053538 | 56 | 0 | 0.0 | 0.0 | 0.00 | 0.00 | 0.00 | 91 | 1009.9 |
| 20260510053053 | 56 | 0 | 0.0 | 0.0 | 0.00 | 0.00 | 0.00 | 91 | 1009.9 |
| 20260510052538 | 56 | 0 | 0.0 | 0.0 | 0.00 | 0.00 | 0.00 | 91 | 1009.9 |
| 20260510052042 | 56 | 0 | 0.0 | 0.0 | 0.00 | 0.00 | 0.00 | 91 | 1009.8 |
| 20260510051550 | 56 | 0 | 0.0 | 0.0 | 0.00 | 0.00 | 0.00 | 90 | 1009.8 |
| 20260510051041 | 56 | 0 | 0.0 | 0.0 | 0.00 | 0.00 | 0.00 | 90 | 1009.8 |
| 20260510050537 | 57 | 0 | 0.0 | 0.0 | 0.00 | 0.00 | 0.00 | 90 | 1009.8 |
| 20260510050049 | 57 | 0 | 0.0 | 0.0 | 0.00 | 0.00 | 0.00 | 90 | 1009.8 |
| 20260510045535 | 57 | 0 | 0.0 | 0.0 | 0.00 | 0.00 | 0.00 | 90 | 1009.8 |
| 20260510045037 | 57 | 0 | 0.0 | 0.0 | 0.00 | 0.00 | 0.00 | 90 | 1009.9 |
| 20260510044551 | 57 | 0 | 0.0 | 0.0 | 0.00 | 0.00 | 0.00 | 90 | 1009.8 |
| 20260510044036 | 57 | 0 | 0.0 | 0.0 | 0.00 | 0.00 | 0.00 | 89 | 1009.8 |
| 20260510043534 | 57 | 0 | 0.0 | 0.0 | 0.00 | 0.00 | 0.00 | 88 | 1009.7 |
| 20260510043107 | 57 | 0 | 0.0 | 0.0 | 0.00 | 0.00 | 0.00 | 88 | 1009.7 |
| 20260510042537 | 57 | 0 | 0.0 | 0.0 | 0.00 | 0.00 | 0.00 | 88 | 1009.7 |
| 20260510042035 | 57 | 0 | 0.0 | 0.0 | 0.00 | 0.00 | 0.00 | 88 | 1009.7 |
| 20260510041556 | 57 | 0 | 0.0 | 0.0 | 0.00 | 0.00 | 0.00 | 89 | 1009.7 |
| 20260510041035 | 58 | 0 | 0.0 | 0.0 | 0.00 | 0.00 | 0.00 | 89 | 1009.7 |
| 20260510040536 | 58 | 0 | 0.0 | 0.0 | 0.00 | 0.00 | 0.00 | 89 | 1009.6 |
| 20260510040059 | 58 | 0 | 0.0 | 0.0 | 0.00 | 0.00 | 0.00 | 89 | 1009.6 |
| 20260510035535 | 58 | 0 | 0.0 | 0.0 | 0.00 | 0.00 | 0.00 | 88 | 1009.6 |
| 20260510035035 | 58 | 0 | 0.0 | 0.0 | 0.00 | 0.00 | 0.00 | 87 | 1009.5 |
| 20260510034549 | 58 | 0 | 0.0 | 0.0 | 0.00 | 0.00 | 0.00 | 87 | 1009.5 |
| 20260510034035 | 58 | 0 | 0.0 | 0.0 | 0.00 | 0.00 | 0.00 | 86 | 1009.6 |
| 20260510033534 | 58 | 0 | 0.0 | 0.0 | 0.00 | 0.00 | 0.00 | 86 | 1009.4 |
| 20260510033049 | 58 | 0 | 0.0 | 0.0 | 0.00 | 0.00 | 0.00 | 86 | 1009.4 |
| 20260510032536 | 58 | 0 | 0.0 | 0.0 | 0.00 | 0.00 | 0.00 | 86 | 1009.4 |
| 20260510032036 | 58 | 0 | 0.0 | 0.0 | 0.00 | 0.00 | 0.00 | 86 | 1009.4 |
| 20260510031554 | 58 | 0 | 0.0 | 0.0 | 0.00 | 0.00 | 0.00 | 86 | 1009.3 |
| 20260510031034 | 59 | 0 | 0.0 | 0.0 | 0.00 | 0.00 | 0.00 | 85 | 1009.3 |
| 20260510030535 | 59 | 0 | 0.0 | 0.0 | 0.00 | 0.00 | 0.00 | 85 | 1009.2 |
| 20260510030052 | 59 | 0 | 0.0 | 0.0 | 0.00 | 0.00 | 0.00 | 84 | 1009.2 |
| 20260510025536 | 59 | 0 | 0.0 | 0.0 | 0.00 | 0.00 | 0.00 | 84 | 1009.2 |
| 20260510025035 | 59 | 0 | 0.0 | 0.0 | 0.00 | 0.00 | 0.00 | 84 | 1009.1 |
| 20260510024544 | 60 | 0 | 0.0 | 0.0 | 0.00 | 0.00 | 0.00 | 84 | 1009.1 |
| 20260510024035 | 60 | 0 | 0.0 | 0.0 | 0.00 | 0.00 | 0.00 | 84 | 1009.0 |
| 20260510023537 | 60 | 0 | 0.0 | 0.0 | 0.00 | 0.00 | 0.00 | 83 | 1009.0 |
| 20260510023049 | 60 | 0 | 0.0 | 0.0 | 0.00 | 0.00 | 0.00 | 82 | 1008.9 |
| 20260510022535 | 61 | 0 | 0.0 | 0.0 | 0.00 | 0.00 | 0.00 | 82 | 1008.9 |
| 20260510022034 | 61 | 0 | 0.0 | 0.0 | 0.00 | 0.00 | 0.00 | 81 | 1008.9 |
| 20260510021549 | 61 | 0 | 0.0 | 0.0 | 0.00 | 0.00 | 0.00 | 81 | 1008.8 |
| 20260510021034 | 61 | 0 | 0.0 | 0.0 | 0.00 | 0.00 | 0.00 | 81 | 1008.8 |
| 20260510020537 | 62 | 0 | 0.0 | 0.0 | 0.00 | 0.00 | 0.00 | 81 | 1008.7 |
| 20260510020047 | 62 | 0 | 0.0 | 0.0 | 0.00 | 0.00 | 0.00 | 79 | 1008.7 |
| 20260510015535 | 62 | 0 | 0.0 | 0.0 | 0.00 | 0.00 | 0.00 | 76 | 1008.7 |
| 20260510015036 | 62 | 0 | 0.0 | 0.0 | 0.00 | 0.00 | 0.00 | 76 | 1008.6 |
| 20260510014547 | 63 | 0 | 0.0 | 0.0 | 0.00 | 0.00 | 0.00 | 76 | 1008.5 |
| 20260510014035 | 63 | 0 | 0.0 | 0.0 | 0.00 | 0.00 | 0.00 | 74 | 1008.3 |
| 20260510013535 | 63 | 0 | 0.0 | 0.0 | 0.00 | 0.00 | 0.00 | 75 | 1008.3 |
| 20260510013045 | 64 | 0 | 0.0 | 0.0 | 0.00 | 0.00 | 0.00 | 75 | 1008.3 |
| 20260510012535 | 64 | 0 | 0.0 | 0.0 | 0.00 | 0.00 | 0.00 | 74 | 1008.2 |
| 20260510012036 | 64 | 0 | 0.0 | 0.0 | 0.00 | 0.00 | 0.00 | 73 | 1008.1 |
| 20260510011554 | 65 | 0 | 0.0 | 0.0 | 0.00 | 0.00 | 0.00 | 73 | 1008.0 |
| 20260510011033 | 65 | 0 | 0.0 | 0.0 | 0.00 | 0.00 | 0.00 | 72 | 1008.0 |
| 20260510010534 | 66 | 0 | 0.0 | 0.0 | 0.00 | 0.00 | 0.00 | 71 | 1008.1 |
| 20260510010049 | 67 | 0 | 0.0 | 0.0 | 0.00 | 0.00 | 0.00 | 69 | 1008.0 |
| 20260510005535 | 67 | 0 | 0.0 | 0.0 | 0.00 | 0.00 | 0.00 | 66 | 1008.0 |
| 20260510005034 | 68 | 0 | 0.0 | 0.0 | 0.00 | 0.00 | 0.00 | 64 | 1007.9 |
| 20260510004550 | 68 | 0 | 0.0 | 0.0 | 0.00 | 0.00 | 0.00 | 62 | 1007.8 |
| 20260510004034 | 69 | 0 | 0.0 | 0.0 | 0.00 | 0.00 | 0.00 | 62 | 1007.7 |
| 20260510003536 | 69 | 0 | 0.0 | 0.0 | 0.00 | 0.00 | 0.00 | 62 | 1007.6 |
| 20260510003049 | 70 | 0 | 0.0 | 0.0 | 0.00 | 0.00 | 0.00 | 63 | 1007.6 |
| 20260510002533 | 71 | 0 | 0.0 | 0.0 | 0.00 | 0.00 | 0.00 | 59 | 1007.6 |
| 20260510002036 | 72 | 0 | 0.0 | 0.0 | 0.00 | 0.00 | 0.00 | 57 | 1007.5 |
| 20260510001551 | 72 | 0 | 0.0 | 0.0 | 0.00 | 0.00 | 0.00 | 55 | 1007.6 |
| 20260510001035 | 73 | 0 | 0.0 | 2.6 | 0.00 | 0.00 | 0.00 | 54 | 1007.5 |
| 20260510000535 | 73 | 0 | 0.0 | 3.5 | 0.00 | 0.00 | 0.00 | 52 | 1007.6 |
| 20260510000051 | 73 | 136 | 0.0 | 3.5 | 0.00 | 0.00 | 0.00 | 50 | 1007.4 |
| 20260509235535 | 74 | 0 | 0.0 | 1.7 | 0.00 | 0.00 | 0.00 | 50 | 1007.3 |
| 20260509235035 | 74 | 0 | 0.0 | 4.3 | 0.00 | 0.00 | 0.00 | 49 | 1007.3 |
| 20260509234547 | 74 | 170 | 0.0 | 5.2 | 0.00 | 0.00 | 0.00 | 48 | 1007.3 |
| 20260509234035 | 74 | 0 | 0.0 | 5.2 | 0.00 | 0.00 | 0.00 | 48 | 1007.3 |
| 20260509233535 | 75 | 0 | 0.9 | 5.2 | 0.00 | 0.00 | 0.00 | 48 | 1007.2 |
| 20260509233053 | 75 | 181 | 0.9 | 4.3 | 0.00 | 0.00 | 0.00 | 47 | 1007.2 |
| 20260509232535 | 75 | 0 | 0.9 | 4.3 | 0.00 | 0.00 | 0.00 | 47 | 1007.1 |
| 20260509232035 | 75 | 163 | 0.0 | 4.3 | 0.00 | 0.00 | 0.00 | 47 | 1007.2 |
| 20260509231550 | 76 | 144 | 0.9 | 3.5 | 0.00 | 0.00 | 0.00 | 46 | 1007.2 |
| 20260509231034 | 76 | 0 | 0.9 | 3.5 | 0.00 | 0.00 | 0.00 | 46 | 1007.2 |
| 20260509230537 | 76 | 0 | 0.9 | 6.1 | 0.00 | 0.00 | 0.00 | 46 | 1007.2 |
| 20260509230048 | 76 | 204 | 0.9 | 6.1 | 0.00 | 0.00 | 0.00 | 46 | 1007.2 |
| 20260509225535 | 76 | 238 | 0.9 | 6.1 | 0.00 | 0.00 | 0.00 | 46 | 1007.2 |
| 20260509225037 | 76 | 0 | 0.9 | 6.1 | 0.00 | 0.00 | 0.00 | 46 | 1007.1 |
| 20260509224557 | 76 | 184 | 0.9 | 6.1 | 0.00 | 0.00 | 0.00 | 45 | 1007.0 |
| 20260509224034 | 76 | 155 | 1.7 | 6.1 | 0.00 | 0.00 | 0.00 | 45 | 1007.0 |
| 20260509223535 | 77 | 241 | 1.7 | 4.3 | 0.00 | 0.00 | 0.00 | 45 | 1007.0 |
| 20260509223059 | 77 | 251 | 0.9 | 7.0 | 0.00 | 0.00 | 0.00 | 45 | 1007.1 |
| 20260509222538 | 76 | 0 | 0.9 | 7.0 | 0.00 | 0.00 | 0.00 | 45 | 1007.1 |
| 20260509222036 | 76 | 234 | 1.7 | 6.1 | 0.00 | 0.00 | 0.00 | 45 | 1007.2 |
| 20260509221602 | 76 | 213 | 0.9 | 6.1 | 0.00 | 0.00 | 0.00 | 45 | 1007.2 |
| 20260509221034 | 76 | 273 | 0.9 | 7.0 | 0.00 | 0.00 | 0.00 | 45 | 1007.2 |
| 20260509220534 | 76 | 244 | 1.7 | 7.0 | 0.00 | 0.00 | 0.00 | 45 | 1007.2 |
| 20260509220053 | 76 | 236 | 1.7 | 7.0 | 0.00 | 0.00 | 0.00 | 44 | 1007.1 |
| 20260509215534 | 76 | 137 | 2.6 | 7.8 | 0.00 | 0.00 | 0.00 | 44 | 1007.1 |
| 20260509215035 | 76 | 248 | 2.6 | 7.8 | 0.00 | 0.00 | 0.00 | 45 | 1007.2 |
| 20260509214554 | 76 | 235 | 0.9 | 7.8 | 0.00 | 0.00 | 0.00 | 46 | 1007.1 |
| 20260509214037 | 76 | 270 | 0.9 | 7.8 | 0.00 | 0.00 | 0.00 | 46 | 1007.2 |
| 20260509213535 | 76 | 167 | 3.5 | 7.8 | 0.00 | 0.00 | 0.00 | 45 | 1007.2 |
| 20260509213054 | 76 | 219 | 1.7 | 7.0 | 0.00 | 0.00 | 0.00 | 45 | 1007.2 |
| 20260509212534 | 76 | 264 | 2.6 | 10.4 | 0.00 | 0.00 | 0.00 | 45 | 1007.2 |
| 20260509212034 | 77 | 196 | 2.6 | 10.4 | 0.00 | 0.00 | 0.00 | 44 | 1007.1 |
| 20260509211547 | 77 | 201 | 2.6 | 8.7 | 0.00 | 0.00 | 0.00 | 44 | 1007.1 |
| 20260509211036 | 78 | 211 | 0.9 | 7.8 | 0.00 | 0.00 | 0.00 | 45 | 1007.0 |
| 20260509210537 | 78 | 242 | 1.7 | 7.8 | 0.00 | 0.00 | 0.00 | 43 | 1007.0 |
| 20260509205535 | 78 | 196 | 0.9 | 8.7 | 0.00 | 0.00 | 0.00 | 45 | 1007.0 |
| 20260509205035 | 78 | 63 | 1.7 | 8.7 | 0.00 | 0.00 | 0.00 | 46 | 1006.8 |
| 20260509204557 | 78 | 180 | 3.5 | 7.0 | 0.00 | 0.00 | 0.00 | 44 | 1006.9 |
| 20260509204035 | 79 | 221 | 0.9 | 6.1 | 0.00 | 0.00 | 0.00 | 44 | 1006.9 |
| 20260509203539 | 78 | 224 | 0.9 | 7.0 | 0.00 | 0.00 | 0.00 | 45 | 1006.9 |
| 20260509203056 | 78 | 248 | 1.7 | 8.7 | 0.00 | 0.00 | 0.00 | 45 | 1006.9 |
| 20260509202536 | 77 | 275 | 2.6 | 8.7 | 0.00 | 0.00 | 0.00 | 46 | 1006.9 |
| 20260509202035 | 77 | 234 | 1.7 | 7.0 | 0.00 | 0.00 | 0.00 | 48 | 1006.9 |
| 20260509201556 | 76 | 292 | 0.9 | 8.7 | 0.00 | 0.00 | 0.00 | 49 | 1007.0 |
| 20260509201035 | 76 | 155 | 1.7 | 9.6 | 0.00 | 0.00 | 0.00 | 49 | 1007.1 |
| 20260509200534 | 76 | 146 | 1.7 | 9.6 | 0.00 | 0.00 | 0.00 | 49 | 1007.2 |
| 20260509200059 | 76 | 241 | 2.6 | 7.8 | 0.00 | 0.00 | 0.00 | 48 | 1007.3 |
| 20260509195536 | 76 | 182 | 0.9 | 7.0 | 0.00 | 0.00 | 0.00 | 49 | 1007.4 |
| 20260509195034 | 76 | 269 | 2.6 | 7.0 | 0.00 | 0.00 | 0.00 | 47 | 1007.4 |
| 20260509194552 | 77 | 268 | 0.9 | 7.0 | 0.00 | 0.00 | 0.00 | 48 | 1007.4 |
| 20260509194037 | 76 | 0 | 0.9 | 7.0 | 0.00 | 0.00 | 0.00 | 49 | 1007.4 |
| 20260509193536 | 76 | 0 | 0.0 | 6.1 | 0.00 | 0.00 | 0.00 | 51 | 1007.7 |
| 20260509193047 | 75 | 242 | 1.7 | 7.8 | 0.00 | 0.00 | 0.00 | 52 | 1007.7 |
| 20260509192535 | 74 | 260 | 2.6 | 7.8 | 0.00 | 0.00 | 0.00 | 52 | 1007.9 |
| 20260509192035 | 74 | 276 | 0.9 | 6.1 | 0.00 | 0.00 | 0.00 | 55 | 1008.0 |
| 20260509191550 | 73 | 242 | 1.7 | 6.1 | 0.00 | 0.00 | 0.00 | 55 | 1008.1 |
| 20260509191037 | 73 | 246 | 0.0 | 5.2 | 0.00 | 0.00 | 0.00 | 54 | 1008.2 |
| 20260509190534 | 73 | 171 | 1.7 | 5.2 | 0.00 | 0.00 | 0.00 | 54 | 1008.2 |
| 20260509185535 | 74 | 279 | 1.7 | 6.1 | 0.00 | 0.00 | 0.00 | 53 | 1008.4 |
| 20260509185035 | 74 | 0 | 0.0 | 7.8 | 0.00 | 0.00 | 0.00 | 55 | 1008.4 |
| 20260509184545 | 74 | 271 | 1.7 | 7.8 | 0.00 | 0.00 | 0.00 | 54 | 1008.5 |
| 20260509184036 | 73 | 246 | 1.7 | 7.0 | 0.00 | 0.00 | 0.00 | 56 | 1008.5 |
| 20260509183536 | 72 | 263 | 0.9 | 7.8 | 0.00 | 0.00 | 0.00 | 56 | 1008.6 |
| 20260509183053 | 72 | 260 | 2.6 | 7.8 | 0.00 | 0.00 | 0.00 | 55 | 1008.8 |
| 20260509182534 | 73 | 242 | 1.7 | 7.8 | 0.00 | 0.00 | 0.00 | 55 | 1008.8 |
| 20260509182034 | 73 | 270 | 2.6 | 7.0 | 0.00 | 0.00 | 0.00 | 54 | 1008.8 |
| 20260509181559 | 73 | 132 | 1.7 | 5.2 | 0.00 | 0.00 | 0.00 | 54 | 1008.9 |
| 20260509181035 | 73 | 218 | 0.9 | 5.2 | 0.00 | 0.00 | 0.00 | 54 | 1008.9 |
| 20260509180535 | 73 | 248 | 1.7 | 5.2 | 0.00 | 0.00 | 0.00 | 54 | 1008.9 |
| 20260509180059 | 73 | 260 | 1.7 | 5.2 | 0.00 | 0.00 | 0.00 | 54 | 1009.1 |
| 20260509175535 | 73 | 182 | 0.0 | 8.7 | 0.00 | 0.00 | 0.00 | 54 | 1009.0 |
| 20260509175035 | 73 | 257 | 0.0 | 8.7 | 0.00 | 0.00 | 0.00 | 54 | 1009.1 |
| 20260509174549 | 72 | 230 | 1.7 | 7.0 | 0.00 | 0.00 | 0.00 | 54 | 1009.2 |
| 20260509174034 | 72 | 157 | 1.7 | 7.0 | 0.00 | 0.00 | 0.00 | 55 | 1009.1 |
| 20260509173535 | 72 | 265 | 1.7 | 8.7 | 0.00 | 0.00 | 0.00 | 55 | 1009.2 |
| 20260509173049 | 72 | 5 | 0.9 | 8.7 | 0.00 | 0.00 | 0.00 | 55 | 1009.2 |
| 20260509172536 | 72 | 217 | 1.7 | 8.7 | 0.00 | 0.00 | 0.00 | 54 | 1009.3 |
| 20260509172035 | 72 | 279 | 3.5 | 8.7 | 0.00 | 0.00 | 0.00 | 56 | 1009.4 |
| 20260509171548 | 72 | 257 | 3.5 | 10.4 | 0.00 | 0.00 | 0.00 | 56 | 1009.4 |
| 20260509171035 | 71 | 127 | 3.5 | 10.4 | 0.00 | 0.00 | 0.00 | 57 | 1009.5 |
| 20260509170534 | 70 | 213 | 1.7 | 6.1 | 0.00 | 0.00 | 0.00 | 58 | 1009.6 |
| 20260509170047 | 70 | 242 | 0.0 | 8.7 | 0.00 | 0.00 | 0.00 | 58 | 1009.5 |
| 20260509165534 | 70 | 237 | 2.6 | 9.6 | 0.00 | 0.00 | 0.00 | 57 | 1009.6 |
| 20260509165038 | 70 | 213 | 1.7 | 10.4 | 0.00 | 0.00 | 0.00 | 57 | 1009.7 |
| 20260509164550 | 70 | 247 | 5.2 | 10.4 | 0.00 | 0.00 | 0.00 | 56 | 1009.6 |
| 20260509164035 | 70 | 232 | 1.7 | 7.8 | 0.00 | 0.00 | 0.00 | 56 | 1009.7 |
| 20260509163537 | 70 | 249 | 2.6 | 8.7 | 0.00 | 0.00 | 0.00 | 55 | 1009.6 |
| 20260509163053 | 70 | 275 | 3.5 | 8.7 | 0.00 | 0.00 | 0.00 | 55 | 1009.6 |
| 20260509162534 | 70 | 230 | 2.6 | 7.8 | 0.00 | 0.00 | 0.00 | 55 | 1009.6 |
| 20260509162035 | 70 | 253 | 3.5 | 10.4 | 0.00 | 0.00 | 0.00 | 55 | 1009.7 |
| 20260509161557 | 71 | 184 | 3.5 | 10.4 | 0.00 | 0.00 | 0.00 | 54 | 1009.7 |
| 20260509161034 | 71 | 229 | 3.5 | 10.4 | 0.00 | 0.00 | 0.00 | 54 | 1009.6 |
| 20260509160535 | 71 | 242 | 1.7 | 13.0 | 0.00 | 0.00 | 0.00 | 54 | 1009.7 |
| 20260509160051 | 71 | 282 | 3.5 | 13.0 | 0.00 | 0.00 | 0.00 | 53 | 1009.7 |
| 20260509155535 | 71 | 246 | 3.5 | 13.0 | 0.00 | 0.00 | 0.00 | 53 | 1009.8 |
| 20260509155034 | 71 | 339 | 2.6 | 10.4 | 0.00 | 0.00 | 0.00 | 54 | 1009.7 |
| 20260509154553 | 71 | 254 | 2.6 | 9.6 | 0.00 | 0.00 | 0.00 | 54 | 1009.9 |
| 20260509154034 | 71 | 211 | 3.5 | 9.6 | 0.00 | 0.00 | 0.00 | 55 | 1009.8 |
| 20260509153537 | 71 | 205 | 2.6 | 9.6 | 0.00 | 0.00 | 0.00 | 54 | 1009.8 |
| 20260509153053 | 71 | 141 | 3.5 | 12.2 | 0.00 | 0.00 | 0.00 | 53 | 1010.0 |
| 20260509152534 | 71 | 94 | 2.6 | 12.2 | 0.00 | 0.00 | 0.00 | 55 | 1010.0 |
| 20260509152037 | 71 | 201 | 3.5 | 9.6 | 0.00 | 0.00 | 0.00 | 55 | 1010.1 |
| 20260509151550 | 70 | 139 | 3.5 | 7.0 | 0.00 | 0.00 | 0.00 | 56 | 1010.1 |
| 20260509151036 | 70 | 217 | 2.6 | 8.7 | 0.00 | 0.00 | 0.00 | 57 | 1009.9 |
| 20260509150539 | 69 | 39 | 2.6 | 9.6 | 0.00 | 0.00 | 0.00 | 57 | 1009.9 |
| 20260509150052 | 69 | 167 | 1.7 | 9.6 | 0.00 | 0.00 | 0.00 | 57 | 1009.9 |
| 20260509145534 | 69 | 239 | 3.5 | 9.6 | 0.00 | 0.00 | 0.00 | 58 | 1010.1 |
| 20260509145034 | 68 | 109 | 1.7 | 7.8 | 0.00 | 0.00 | 0.00 | 60 | 1010.2 |
| 20260509144547 | 68 | 155 | 2.6 | 12.2 | 0.00 | 0.00 | 0.00 | 59 | 1010.3 |
| 20260509144034 | 67 | 285 | 1.7 | 12.2 | 0.00 | 0.00 | 0.00 | 59 | 1010.4 |
| 20260509143535 | 67 | 196 | 3.5 | 9.6 | 0.00 | 0.00 | 0.00 | 58 | 1010.5 |
| 20260509143047 | 67 | 132 | 2.6 | 9.6 | 0.00 | 0.00 | 0.00 | 60 | 1010.7 |